Meteo Giornale » Osservazioni meteo Francia » Lille

ore: 02:30 - Osservazioni Meteo Lille
Lat. 50° 34' N Lon. 3° 6' E Alt. 48 metri s.l.m.

sereno Europe/Paris

10 °C

Sereno

Temp. 24 Ore

7 °C

19 °C

Nord/Nord-Est

7.4 Km/h

Dew point 7 °C

Umidità 81 %

Visibilità  10 Km

Il sole sorge alle ore 07:27

Il sole tramonta alle ore 19:54

Data e Ora Cielo e Fenomeni T °C DP °C Um. % Pres. hPa Vis. km Vento km/h
Oggi h: 02:30 sereno Sereno 10 7 81 1029 10 N/NE 7.4
Oggi h: 02:00 sereno Sereno 11 7 76 1030 10 N/NE 11.1
Oggi h: 01:30 sereno Sereno 11 7 76 1029 10 N/NE 9.3
Oggi h: 01:00 sereno Sereno 11 7 76 1029 10 N/NE 11.1
Oggi h: 00:30 sereno Sereno 11 7 76 1029 10 N/NE 11.1
Oggi h: 00:00 sereno Sereno 12 7 71 1029 10 N/NE 13
Ieri h: 23:30 sereno Sereno 12 7 71 1029 10 N/NE 14.8
Ieri h: 23:00 sereno Sereno 13 7 66 1029 10 N/NE 13
Ieri h: 22:30 sereno Sereno 13 7 66 1028 10 N/NE 14.8
Ieri h: 22:00 sereno Sereno 13 7 66 1028 10 N/NE 14.8
Ieri h: 21:30 sereno Sereno 13 7 66 1028 10 N/NE 14.8
Ieri h: 21:00 sereno Sereno 14 7 62 1028 10 N/NE 14.8
Ieri h: 20:30 sereno Sereno 15 6 54 1028 10 N 16.7
Ieri h: 20:00 sereno Sereno 15 6 54 1027 10 N 20.3
Ieri h: 19:30 poco_nuvoloso Poco Nuvoloso 16 6 51 1027 10 N 24
Ieri h: 19:00 sereno Sereno 17 6 48 1027 10 N 22.2
Ieri h: 18:30 sereno Sereno 18 6 45 1027 10 N/NE 22.2
Ieri h: 18:00 sereno Sereno 19 6 42 1027 10 N/NE 20.3
Ieri h: 17:30 sereno Sereno 17 6 48 1027 10 N/NE 20.3
Ieri h: 17:00 sereno Sereno 18 6 45 1027 10 N 18.5
Ieri h: 16:30 sereno Sereno 19 6 42 1027 10 N 14.8
Ieri h: 16:00 sereno Sereno 18 6 45 1027 10 N/NE 18.5
Ieri h: 15:30 molto_nuvoloso Molto Nuvoloso 18 6 45 1027 10 N/NE 22.2
Ieri h: 15:00 sereno Sereno 18 6 45 1027 10 N 16.7
Ieri h: 14:30 molto_nuvoloso Molto Nuvoloso 19 6 42 1027 10 N/NO 13
Ieri h: 14:00 molto_nuvoloso Molto Nuvoloso 18 6 45 1028 10 NE 14.8
Ieri h: 13:30 molto_nuvoloso Molto Nuvoloso 18 5 42 1028 10 NE 18.5
Ieri h: 13:00 molto_nuvoloso Molto Nuvoloso 17 6 48 1028 10 N/NE 14.8
Ieri h: 12:30 molto_nuvoloso Molto Nuvoloso 17 5 45 1028 10 N/NE 18.5
Ieri h: 12:00 nuvoloso Nuvoloso 17 6 48 1028 10 NE 18.5
Ieri h: 11:30 sereno Sereno 16 5 47 1028 10 NE 14.8
Ieri h: 11:00 sereno Sereno 16 6 51 1028 10 E/NE 14.8
Ieri h: 10:30 sereno Sereno 16 7 55 1028 10 E/NE 13
Ieri h: 10:00 sereno Sereno 15 7 58 1028 10 N/NE 9.3
Ieri h: 09:30 sereno Sereno 13 7 66 1028 10 N/NE 7.4
Ieri h: 09:00 poco_nuvoloso Poco Nuvoloso 12 7 71 1027 10 N 1.8
Ieri h: 08:30 poco_nuvoloso Poco Nuvoloso 10 7 81 1027 10 N 3.7
Ieri h: 08:00 coperto Coperto 9 7 87 1027 10 N 0
Ieri h: 07:30 molto_nuvoloso Molto Nuvoloso 8 6 87 1027 10 N 0
Ieri h: 07:00 poco_nuvoloso Poco Nuvoloso 7 5 87 1026 10 N 1.8
Ieri h: 06:30 nuvoloso Nuvoloso 8 5 81 1026 10 N 3.7
Ieri h: 06:00 sereno Sereno 8 5 81 1026 10 N 1.8
Ieri h: 05:30 sereno Sereno 9 5 75 1026 10 N 0
Ieri h: 05:00 sereno Sereno 9 6 81 1026 10 N 0
Ieri h: 04:30 sereno Sereno 9 6 81 1026 10 N 3.7
Ieri h: 04:00 sereno Sereno 9 6 81 1026 10 N 3.7
Ieri h: 03:30 sereno Sereno 9 6 81 1026 10 N 0
Ieri h: 03:00 sereno Sereno 10 6 76 1026 10 N 5.5